• Join FlightAware (Why Join?)
  • Login
  • US Flag 
07:25AM EDT


 

Airport Tracker/Info


-or-


 

Live Flight TrackerFlight Track Log ✈ SWA2004 ✈ 21-Apr-2013 ✈ KFLL - KBNA

Flight Track Log - Related Links

Times and Time Zones

All times are in EDT time to prevent confusion due to time zone crossing. See the SWA2004 flight status page for this flight to view local times or setup timezone preferences in your user account.

Time Position Orientation Groundspeed Altitude Reporting Facility
EDT Latitude Longitude Course Direction KTS MPH feet Rate Location/Type
07:43PM 26.0750 -80.1367 85° East 178 205 600  Level Miami Center
07:44PM 26.0781 -80.0950 85° East 212 244 1,900 2,580 Climbing Miami Center
07:45PM 26.0878 -80.0331 80° East 223 257 4,900 1,560 Climbing Miami Center
07:46PM 26.1544 -80.0300 North 281 323 5,000  Climbing Miami Center
07:47PM 26.2183 -80.0758 327° Northwest 272 313 5,000 1,500 Level Miami Center
07:48PM 26.2908 -80.1033 341° North 274 315 8,100 2,880 Climbing Miami Center
07:49PM 26.3633 -80.1353 338° Northwest 300 345 11,000 1,740 Climbing Miami Center
07:50PM 26.4181 -80.2064 311° West 298 343 11,700 1,500 Climbing Miami Center
07:51PM 26.4847 -80.2964 310° West 325 374 14,100 2,460 Climbing Miami Center
07:52PM 26.5544 -80.3497 326° Northwest 334 384 16,700 2,820 Climbing Miami Center
07:53PM 26.6536 -80.4014 335° Northwest 351 404 19,800 2,460 Climbing Miami Center
07:54PM 26.7492 -80.4206 350° North 366 421 21,700 1,920 Climbing Miami Center
07:55PM 26.8617 -80.4264 357° North 391 450 23,700 2,040 Climbing Miami Center
07:56PM 26.9789 -80.4253 360° North 403 464 25,800 2,100 Climbing Miami Center
07:57PM 27.0936 -80.4264 360° North 408 470 28,000 1,920 Climbing Miami Center
07:58PM 27.2103 -80.4325 357° North 408 470 29,700 1,500 Climbing Miami Center
07:59PM 27.3225 -80.4569 349° North 408 470 31,000 1,440 Climbing Miami Center
08:00PM 27.4253 -80.5186 332° Northwest 408 470 32,600 1,800 Climbing Miami Center
08:01PM 27.5006 -80.6028 315° West 392 451 34,600 1,440 Climbing Miami Center
08:02PM 27.5775 -80.6919 314° West 392 451 35,500 900 Climbing Miami Center
08:03PM 27.6564 -80.7814 315° West 392 451 36,500 1,200 Climbing Miami Center
08:04PM 27.7314 -80.8661 315° West 392 451 38,000 720 Climbing Miami Center
08:05PM 27.8125 -80.9511 317° Northwest 386 444 38,000  Level Miami Center
08:06PM 27.8850 -81.0358 314° West 386 444 38,000  Level Miami Center
08:07PM 27.9578 -81.1233 313° West 381 438 38,000  Level Miami Center
08:08PM 28.0303 -81.2058 315° West 381 438 38,000  Level Miami Center
08:09PM 28.1111 -81.2983 315° West 381 438 38,000  Level Miami Center
08:10PM 28.1814 -81.3811 314° West 381 438 38,000  Level Miami Center
08:11PM 28.2539 -81.4689 313° West 381 438 38,000  Level Miami Center
08:11PM 28.2906 -81.5042 320° Northwest 383 441 38,000  Level Jacksonville Center
08:12PM 28.3625 -81.5881 314° West 370 426 38,000  Level Jacksonville Center
08:13PM 28.4300 -81.6675 314° West 371 427 38,000  Level Jacksonville Center
08:14PM 28.5017 -81.7517 314° West 371 427 38,000  Level Jacksonville Center
08:15PM 28.5733 -81.8358 314° West 371 427 38,000  Level Jacksonville Center
08:16PM 28.6472 -81.9203 315° West 371 427 38,000  Level Jacksonville Center
08:17PM 28.7250 -82.0094 315° West 371 427 38,000  Level Jacksonville Center
08:18PM 28.7986 -82.0942 315° West 366 421 38,000  Level Jacksonville Center
08:19PM 28.8722 -82.1836 313° West 373 429 38,000  Level Jacksonville Center
08:20PM 28.9414 -82.2708 312° West 373 429 38,000  Level Jacksonville Center
08:21PM 29.0064 -82.3442 315° West 373 429 38,000  Level Jacksonville Center
08:22PM 29.0778 -82.4317 313° West 373 429 38,000  Level Jacksonville Center
08:23PM 29.1533 -82.5192 315° West 373 429 38,000  Level Jacksonville Center
08:24PM 29.2308 -82.6069 315° West 373 429 38,000  Level Jacksonville Center
08:25PM 29.3039 -82.6997 312° West 379 436 38,000  Level Jacksonville Center
08:26PM 29.3792 -82.7900 314° West 385 443 38,000  Level Jacksonville Center
08:27PM 29.4647 -82.8903 314° West 390 449 38,000  Level Jacksonville Center
08:28PM 29.5378 -82.9786 314° West 407 468 38,000  Level Jacksonville Center
08:29PM 29.6317 -83.0550 325° Northwest 412 474 38,000  Level Jacksonville Center
08:30PM 29.7528 -83.0936 345° North 418 481 38,000  Level Jacksonville Center
08:31PM 29.8739 -83.1322 345° North 433 498 38,000  Level Jacksonville Center
08:32PM 29.9947 -83.1731 344° North 444 511 38,000  Level Jacksonville Center
08:33PM 30.1283 -83.2144 345° North 450 518 38,000  Level Jacksonville Center
08:34PM 30.2492 -83.2556 344° North 450 518 38,000  Level Jacksonville Center
08:35PM 30.3661 -83.2947 344° North 444 511 38,000  Level Jacksonville Center
08:36PM 30.4850 -83.3336 344° North 437 503 38,000  Level Jacksonville Center
08:37PM 30.5789 -83.3681 342° North 437 503 38,000  Level Jacksonville Center
08:38PM 30.7081 -83.4097 344° North 442 509 38,000  Level Jacksonville Center
08:39PM 30.8311 -83.4514 344° North 442 509 38,000  Level Jacksonville Center
08:40PM 30.9458 -83.4933 343° North 437 503 38,000  Level Jacksonville Center
08:41PM 31.0667 -83.5328 344° North 437 503 38,000  Level Jacksonville Center
08:42PM 31.1897 -83.5750 344° North 442 509 38,000  Level Jacksonville Center
08:43PM 31.3106 -83.6172 343° North 442 509 38,000  Level Jacksonville Center
08:45PM 31.5061 -83.6858 343° North 450 518 38,000  Level Atlanta Center
08:46PM 31.6106 -83.7144 347° North 450 518 38,000  Level Atlanta Center
08:47PM 31.7297 -83.7631 341° North 450 518 38,000  Level Atlanta Center
08:48PM 31.8550 -83.8067 344° North 441 507 38,000  Level Atlanta Center
08:49PM 31.9719 -83.8478 343° North 441 507 38,000  Level Atlanta Center
08:50PM 32.0889 -83.8869 344° North 435 501 38,000  Level Atlanta Center
08:51PM 32.2078 -83.9308 343° North 440 506 38,000  Level Atlanta Center
08:52PM 32.3269 -83.9725 344° North 440 506 38,000  Level Atlanta Center
08:53PM 32.4458 -84.0142 344° North 440 506 38,000  Level Atlanta Center
08:54PM 32.5669 -84.0561 344° North 440 506 38,000  Level Atlanta Center
08:55PM 32.6839 -84.1006 342° North 440 506 38,000  Level Atlanta Center
08:56PM 32.8069 -84.1403 345° North 440 506 38,000  Level Atlanta Center
08:57PM 32.9239 -84.1822 343° North 440 506 38,000  Level Atlanta Center
08:58PM 33.0511 -84.2272 343° North 435 501 38,000  Level Atlanta Center
08:59PM 33.1700 -84.2719 343° North 435 501 38,000  Level Atlanta Center
09:00PM 33.2700 -84.3097 342° North 435 501 38,000  Level Atlanta Center
09:01PM 33.3889 -84.3522 343° North 440 506 38,000  Level Atlanta Center
09:02PM 33.5036 -84.3925 344° North 426 490 38,000  Level Atlanta Center
09:03PM 33.6203 -84.4356 343° North 426 490 38,000  Level Atlanta Center
09:04PM 33.7308 -84.4833 340° North 421 484 38,000  Level Atlanta Center
09:05PM 33.8581 -84.5417 339° North 432 497 38,000  Level Atlanta Center
09:06PM 33.9725 -84.5900 341° North 432 497 38,000  Level Atlanta Center
09:07PM 34.0850 -84.6408 339° North 432 497 38,000 -540 Level Atlanta Center
09:08PM 34.2017 -84.6919 340° North 437 503 37,000 -900 Descending Atlanta Center
09:09PM 34.2994 -84.7453 336° Northwest 437 503 36,200 -900 Descending Atlanta Center
09:10PM 34.4011 -84.8217 328° Northwest 424 488 35,200 -1,020 Descending Atlanta Center
09:11PM 34.5031 -84.9008 327° Northwest 430 495 34,200 -720 Descending Atlanta Center
09:12PM 34.6006 -84.9725 329° Northwest 428 493 33,800 -780 Descending Atlanta Center
09:13PM 34.7022 -85.0544 326° Northwest 409 471 32,700 -1,140 Descending Atlanta Center
09:14PM 34.7956 -85.1264 328° Northwest 403 464 31,600 -900 Descending Atlanta Center
09:15PM 34.8886 -85.1986 328° Northwest 398 458 31,000 -1,020 Descending Atlanta Center
09:17PM 35.0642 -85.3342 328° Northwest 385 443 28,500 -1,440 Descending Memphis Center
09:18PM 35.1481 -85.4000 327° Northwest 373 429 26,600 -1,800 Descending Memphis Center
09:19PM 35.2225 -85.4872 316° Northwest 350 403 24,900 -1,320 Descending Memphis Center
09:20PM 35.2842 -85.5675 313° West 332 382 24,000 -1,200 Descending Memphis Center
09:21PM 35.3478 -85.6503 313° West 332 382 22,500 -2,100 Descending Memphis Center
09:22PM 35.4133 -85.7333 314° West 337 388 19,900 -2,280 Descending Memphis Center
09:23PM 35.4769 -85.8189 312° West 337 388 18,000 -1,860 Descending Memphis Center
09:24PM 35.5406 -85.8997 314° West 332 382 16,200 -1,800 Descending Memphis Center
09:25PM 35.6017 -85.9806 313° West 332 382 14,400 -1,740 Descending Memphis Center
09:26PM 35.6564 -86.0492 314° West 327 376 12,800 -1,620 Descending Memphis Center
09:27PM 35.7111 -86.1283 310° West 320 368 11,200 -1,560 Descending Memphis Center
09:28PM 35.7617 -86.2075 308° West 304 350 9,700 -1,560 Descending Memphis Center
09:29PM 35.8042 -86.2925 302° West 294 338 8,100 -1,560 Descending Memphis Center
09:30PM 35.8486 -86.3747 304° West 289 333 6,600 -1,500 Descending Memphis Center
09:31PM 35.8928 -86.4572 303° West 289 333 5,200 -1,200 Descending Memphis Center
09:32PM 35.9372 -86.5447 302° West 284 327 4,200 -780 Descending Memphis Center
09:33PM 35.9728 -86.6122 303° West 263 303 3,700 -720 Descending Memphis Center
09:34PM 36.0036 -86.6725 302° West 229 264 2,800 -900 Descending Memphis Center
09:35PM 36.0381 -86.7017 326° Northwest 150 173 2,000 -720 Descending Memphis Center
09:36PM 36.0728 -86.6847 22° Northeast 126 145 1,400 -660 Descending Memphis Center
09:37PM 36.1078 -86.6678 21° North 126 145 700 -420 Descending Memphis Center
09:38PM 36.1369 -86.6614 10° North 126 145 600 -120 Descending Memphis Center
09:41PM 36.1167 -86.6667 345° North  Level FlightAware Approximate
09:48PM 36.1245 -86.6782 345° North  Level Estimated
09:49PM 36.1245 -86.6782 345° North  Level Estimated
09:50PM 36.1245 -86.6782 345° North  Level Estimated
09:51PM 36.1245 -86.6782 345° North  Level Estimated
09:52PM 36.1245 -86.6782 345° North  Level Estimated